Starlink 32108

operational
NORAD ID: 59682 Int'l Des: 2024-086 Owner: SPXS Country: US Constellation: starlink
LEOCIRCULAR

关于 Starlink 32108

正在加载描述...

实时位置

正在加载3D地球...

即将过境

高度历史

Altitude vs Time

uPlot chart will show altitude changes over time

两行轨道根数

1 59682U 24086A 25257.49677017 -.00005118 00000-0 -17640-3 0 9990
2 59682 43.0090 338.5498 0002889 279.9073 80.1453 15.27605018 77114
Epoch: Sep 14, 2025 • Age: 18 hours

当前状态

高度 494.3 km
速度 7.62 km/s
星下点 -42.71°S, 144.59°E
发射日期 May 8, 2024
运行时间 1.3 years
类型 internet

技术详情

分类 Payload
质量 730.00 kg
干质量 700.00 kg
总质量 730.00 kg
长度 0.30 m
直径 4.10 m
跨度 29.00 m
形状 Box + pan
制造商 SPXS
平台类型 Starlink V2M
阶段状态 In Orbit
所有者/国家 SPXS/US

大型星座

Loading constellations...